{"data":{"norad_id":59045,"intl_designator":"2024-038Y","name":"STARLINK-31241","alt_names":[],"object_type":"PAYLOAD","status":"ACTIVE","operator":null,"country":"US","launch_date":"2024-02-25","launch_site_code":"AFETR","launch_vehicle":null,"mission":null,"orbit_class":"UNKNOWN","rcs_meters":null,"size_class":null,"mass_kg":null,"dimensions":null,"purposes":["comms"],"wikipedia_slug":null,"has_3d_model":false,"image_url":null,"decayed_at":null,"tle_current":{"epoch":"2026-09-19T14:43:20.271648Z","epoch_age_seconds":233049,"freshness":"STALE","line1":"1 59045U 24038Y   26262.61342907  .00000206  00000+0  17021-4 0  9992","line2":"2 59045  43.0045   8.6205 0001471 290.4946  69.5748 15.27577425144518","mean_motion":15.27577425,"eccentricity":0.0001471,"inclination_deg":43.0045,"raan_deg":8.6205,"arg_perigee_deg":290.4946,"mean_anomaly_deg":69.5748,"bstar":1.7021e-5,"rev_number":14451,"period_min":94.26690761681,"perigee_km":482.0475249179,"apogee_km":484.06608813578,"semimajor_km":6861.1938065268,"source":"CELESTRAK","updated_at":"2026-09-21T09:00:34.032929Z"}}}